Regional Weather Roundup
Issued by NWS Little Rock, AR

Home | Current Version | Previous Version | Text Only | Print | Product List | Glossary Off
Versions: 1 2 3 4 5 6 7 8 9 10 11 12 13 14 15 16 17 18 19 20 21 22 23 24 25 26 27 28 29 30 31 32 33 34 35 36 37 38 39 40 41 42 43 44 45 46 47 48 49 50

000
ASUS44 KLZK 231805
RWRLZK

WEATHER ROUNDUP FOR ARKANSAS
NATIONAL WEATHER SERVICE LITTLE ROCK AR
100 PM CDT MON OCT 23 2017

NOTE: "FAIR" INDICATES FEW OR NO CLOUDS BELOW 12,000 FEET WITH NO
SIGNIFICANT WEATHER AND/OR OBSTRUCTIONS TO VISIBILITY.

ARZ001-003-010-029-231900-
NORTHWEST ARKANSAS

CITY           SKY/WX    TMP DP  RH WIND       PRES   REMARKS
FAYETTEVILLE   SUNNY     68  42  38 W15G29    29.99F
6HR MIN TEMP:  36; 6HR MAX TEMP:  69;

FORT SMITH       N/A    N/A N/A N/A MISG      30.01F
HARRISON       SUNNY     67  38  34 W12G26    29.97F
6HR MIN TEMP:  47; 6HR MAX TEMP:  69;

BENTONVILLE    MOSUNNY   67  45  45 SW13      30.00F
6HR MIN TEMP:  40; 6HR MAX TEMP:  67;

ROGERS         CLOUDY    67  43  41 SW17      29.98F
6HR MIN TEMP:  43; 6HR MAX TEMP:  67;

SILOAM SPGS    MOSUNNY   68  44  42 W16G22    30.00F
6HR MIN TEMP:  37; 6HR MAX TEMP:  68;

HIGHFILL       MOSUNNY   68  44  42 W17       29.98F
6HR MIN TEMP:  38; 6HR MAX TEMP:  68; 6HR PCP: TRACE;

SPRINGDALE     MOSUNNY   68  41  37 W12G23    30.01F
$$

ARZ004-005-016-231900-
NORTH CENTRAL ARKANSAS

CITY           SKY/WX    TMP DP  RH WIND       PRES   REMARKS
BATESVILLE     SUNNY     72  41  32 NW6       29.97F
6HR MIN TEMP:  49; 6HR MAX TEMP:  72; 6HR PCP:  0.01;

FLIPPIN        SUNNY     72  40  31 W15       29.95F
6HR MIN TEMP:  45; 6HR MAX TEMP:  72;

MTN HOME       SUNNY     70  44  39 VRB7      29.93F
6HR MIN TEMP:  46; 6HR MAX TEMP:  70;

$$

ARZ040-041-231900-
WEST CENTRAL ARKANSAS

CITY           SKY/WX    TMP DP  RH WIND       PRES   REMARKS
MENA           CLOUDY    72  41  33 W15       30.06F
MOUNT IDA      SUNNY     74  30  19 W9G20     30.01F
6HR MIN TEMP:  41; 6HR MAX TEMP:  75;

$$

ARZ009-017-025-026-028-231900-
NORTHEAST ARKANSAS

CITY           SKY/WX    TMP DP  RH WIND       PRES   REMARKS
JONESBORO      SUNNY     68  47  46 W10       29.96F
6HR MIN TEMP:  52; 6HR MAX TEMP:  69;

NEWPORT        SUNNY     72  42  34 W12       29.97F
6HR MIN TEMP:  50; 6HR MAX TEMP:  72;

WALNUT RIDGE   SUNNY     70  44  39 W10       29.94
BLYTHEVILLE    MOSUNNY   66  47  50 W8        29.96F
6HR MIN TEMP:  53; 6HR MAX TEMP:  67;

NW BLYTHEVILLE MOSUNNY   66  50  55 W10       29.95F
$$

ARZ022-023-033-042-044-231900-
CENTRAL ARKANSAS

CITY           SKY/WX    TMP DP  RH WIND       PRES   REMARKS
LITTLE ROCK    MOSUNNY   72  44  36 S9        30.02F
6HR MIN TEMP:  44; 6HR MAX TEMP:  72;

N LITTLE ROCK    N/A     70  43  37 W6        30.03F
6HR MIN TEMP:  49; 6HR MAX TEMP:  70;

JACKSONVILLE   SUNNY     72  40  31 W15       30.00F
6HR MIN TEMP:  47; 6HR MAX TEMP:  72;

SEARCY         SUNNY     71  43  36 VRB7      29.99F
6HR MIN TEMP:  49; 6HR MAX TEMP:  72;

HOT SPRINGS    SUNNY     75  37  25 W7        30.03F
6HR MIN TEMP:  46; 6HR MAX TEMP:  75;

RUSSELLVILLE   SUNNY     66  48  52 S5        30.01F
6HR MIN TEMP:  43; 6HR MAX TEMP:  67;

CLINTON        FAIR      72  45  37 SW8G16    29.99F
$$

ARZ036-231900-
EAST ARKANSAS

CITY           SKY/WX    TMP DP  RH WIND       PRES   REMARKS
WEST MEMPHIS   SUNNY     66  46  48 NW8       29.98F
6HR MIN TEMP:  52; 6HR MAX TEMP:  66;

$$

ARZ050-053-066-070-073-231900-
SOUTHWEST ARKANSAS

CITY           SKY/WX    TMP DP  RH WIND       PRES   REMARKS
ARKADELPHIA    FAIR      72  44  36 W8        30.06F
6HR MIN TEMP:  41; 6HR MAX TEMP:  72;

CAMDEN         SUNNY     73  43  33 VRB7      30.07F
TEXARKANA      SUNNY     71  40  32 W5        30.08F
6HR MIN TEMP:  45; 6HR MAX TEMP:  72;

EL DORADO      SUNNY     71  45  39 W7        30.10F
6HR MIN TEMP:  45; 6HR MAX TEMP:  72;

DE QUEEN       SUNNY     73  43  33 W12       30.06F
6HR MIN TEMP:  38; 6HR MAX TEMP:  73;

$$

ARZ056-057-069-231900-
SOUTHEAST ARKANSAS

CITY           SKY/WX    TMP DP  RH WIND       PRES   REMARKS
PINE BLUFF     SUNNY     72  39  30 W10       30.03F
6HR MIN TEMP:  46; 6HR MAX TEMP:  72;

STUTTGART      SUNNY     72  41  32 W14       30.01F
6HR MIN TEMP:  48; 6HR MAX TEMP:  72;

MONTICELLO     SUNNY     70  41  34 W10       30.06F
6HR MIN TEMP:  47; 6HR MAX TEMP:  70;


$$





USA.gov is the U.S. government's official web portal to all federal, state and local government web resources and services.